Time,TemperatureF,DewpointF,PressureIn,WindDirection,WindDirectionDegrees,WindSpeedMPH,WindSpeedGustMPH,Humidity,HourlyPrecipIn,Conditions,Clouds,dailyrainin,SoftwareType,DateUTC
2012-06-28 00:00:00,76.4,49.6,29.94,NNE,24,0.0,0.0,39,0.00,,,0.00,VWS V13.01,2012-06-28 05:00:00,
2012-06-28 00:05:00,76.2,48.8,29.94,North,2,0.0,0.0,38,0.00,,,0.00,VWS V13.01,2012-06-28 05:05:00,
2012-06-28 00:10:00,76.2,48.1,29.94,NNW,341,0.0,0.0,37,0.00,,,0.00,VWS V13.01,2012-06-28 05:10:00,
2012-06-28 00:15:00,76.4,47.5,29.94,NNW,330,0.0,0.0,36,0.00,,,0.00,VWS V13.01,2012-06-28 05:15:00,
2012-06-28 00:20:00,76.8,47.1,29.94,NNW,330,0.0,0.0,35,0.00,,,0.00,VWS V13.01,2012-06-28 05:20:00,
2012-06-28 00:25:00,77.1,47.4,29.94,NNW,330,0.0,0.0,35,0.00,,,0.00,VWS V13.01,2012-06-28 05:25:00,
2012-06-28 00:30:00,77.5,47.7,29.94,NNW,330,0.0,0.0,35,0.00,,,0.00,VWS V13.01,2012-06-28 05:30:00,
2012-06-28 00:35:00,77.3,47.5,29.94,NNW,330,0.0,0.0,35,0.00,,,0.00,VWS V13.01,2012-06-28 05:35:00,
2012-06-28 00:40:00,76.9,47.2,29.94,NNW,331,0.0,0.0,35,0.00,,,0.00,VWS V13.01,2012-06-28 05:40:00,
2012-06-28 00:45:00,76.6,47.7,29.94,NNE,23,0.0,0.0,36,0.00,,,0.00,VWS V13.01,2012-06-28 05:45:00,
2012-06-28 00:50:00,76.4,46.8,29.94,NNE,23,0.0,0.0,35,0.00,,,0.00,VWS V13.01,2012-06-28 05:50:00,
2012-06-28 00:55:00,76.2,47.3,29.94,NNE,23,0.0,0.0,36,0.00,,,0.00,VWS V13.01,2012-06-28 05:55:00,
2012-06-28 01:00:00,76.0,47.9,29.94,NE,35,0.0,0.0,37,0.00,,,0.00,VWS V13.01,2012-06-28 06:00:00,
2012-06-28 01:05:00,75.9,47.0,29.94,NE,35,0.0,0.0,36,0.00,,,0.00,VWS V13.01,2012-06-28 06:05:00,
2012-06-28 01:10:00,75.7,47.6,29.94,NE,35,0.0,0.0,37,0.00,,,0.00,VWS V13.01,2012-06-28 06:10:00,
2012-06-28 01:15:00,75.7,47.6,29.94,NE,35,0.0,0.0,37,0.00,,,0.00,VWS V13.01,2012-06-28 06:15:00,
2012-06-28 01:20:00,75.5,48.8,29.94,NE,35,0.0,0.0,39,0.00,,,0.00,VWS V13.01,2012-06-28 06:20:00,
2012-06-28 01:25:00,75.1,49.8,29.94,NE,35,0.0,0.0,41,0.00,,,0.00,VWS V13.01,2012-06-28 06:25:00,
2012-06-28 01:30:00,74.6,49.4,29.94,NE,35,0.0,0.0,41,0.00,,,0.00,VWS V13.01,2012-06-28 06:30:00,
2012-06-28 01:35:00,74.2,49.7,29.94,NE,35,0.0,0.0,42,0.00,,,0.00,VWS V13.01,2012-06-28 06:35:00,
2012-06-28 01:40:00,74.1,49.5,29.94,NE,35,0.0,0.0,42,0.00,,,0.00,VWS V13.01,2012-06-28 06:40:00,
2012-06-28 01:45:00,73.7,49.2,29.94,NE,35,0.0,0.0,42,0.00,,,0.00,VWS V13.01,2012-06-28 06:45:00,
2012-06-28 01:50:00,73.3,49.5,29.94,NE,35,0.0,0.0,43,0.00,,,0.00,VWS V13.01,2012-06-28 06:50:00,
2012-06-28 01:55:00,73.2,49.3,29.94,NE,35,0.0,0.0,43,0.00,,,0.00,VWS V13.01,2012-06-28 06:55:00,
2012-06-28 02:00:00,72.8,49.6,29.94,NE,35,0.0,0.0,44,0.00,,,0.00,VWS V13.01,2012-06-28 07:00:00,
2012-06-28 02:05:00,72.4,49.9,29.94,NE,35,0.0,0.0,45,0.00,,,0.00,VWS V13.01,2012-06-28 07:05:00,
2012-06-28 02:10:00,72.4,49.9,29.94,NE,35,0.0,0.0,45,0.00,,,0.00,VWS V13.01,2012-06-28 07:10:00,
2012-06-28 02:15:00,72.3,49.2,29.94,NE,35,0.0,0.0,44,0.00,,,0.00,VWS V13.01,2012-06-28 07:15:00,
2012-06-28 02:20:00,72.3,49.8,29.94,NE,35,0.0,0.0,45,0.00,,,0.00,VWS V13.01,2012-06-28 07:20:00,
2012-06-28 02:25:00,72.1,49.6,29.94,NE,35,0.0,0.0,45,0.00,,,0.00,VWS V13.01,2012-06-28 07:25:00,
2012-06-28 02:30:00,72.1,49.6,29.94,NE,35,0.0,0.0,45,0.00,,,0.00,VWS V13.01,2012-06-28 07:30:00,
2012-06-28 02:35:00,71.9,50.0,29.94,NE,35,0.0,0.0,46,0.00,,,0.00,VWS V13.01,2012-06-28 07:35:00,
2012-06-28 02:40:00,71.7,49.3,29.94,NE,35,0.0,0.0,45,0.00,,,0.00,VWS V13.01,2012-06-28 07:40:00,
2012-06-28 02:45:00,71.4,50.1,29.94,NE,35,0.0,0.0,47,0.00,,,0.00,VWS V13.01,2012-06-28 07:45:00,
2012-06-28 02:50:00,71.0,50.3,29.94,NE,35,0.0,0.0,48,0.00,,,0.00,VWS V13.01,2012-06-28 07:50:00,
2012-06-28 02:55:00,70.8,50.2,29.94,NE,35,0.0,0.0,48,0.00,,,0.00,VWS V13.01,2012-06-28 07:55:00,
2012-06-28 03:00:00,70.6,50.0,29.94,NE,35,0.0,0.0,48,0.00,,,0.00,VWS V13.01,2012-06-28 08:00:00,
2012-06-28 03:05:00,70.6,50.6,29.94,NE,35,0.0,0.0,49,0.00,,,0.00,VWS V13.01,2012-06-28 08:05:00,
2012-06-28 03:10:00,70.3,50.8,29.94,NE,35,0.0,0.0,50,0.00,,,0.00,VWS V13.01,2012-06-28 08:10:00,
2012-06-28 03:15:00,70.1,50.6,29.94,NE,35,0.0,0.0,50,0.00,,,0.00,VWS V13.01,2012-06-28 08:15:00,
2012-06-28 03:20:00,69.9,50.5,29.94,NE,35,0.0,0.0,50,0.00,,,0.00,VWS V13.01,2012-06-28 08:20:00,
2012-06-28 03:25:00,69.7,50.8,29.94,NE,35,0.0,0.0,51,0.00,,,0.00,VWS V13.01,2012-06-28 08:25:00,
2012-06-28 03:30:00,69.6,50.7,29.94,NE,35,0.0,0.0,51,0.00,,,0.00,VWS V13.01,2012-06-28 08:30:00,
2012-06-28 03:35:00,69.4,51.0,29.94,NE,35,0.0,0.0,52,0.00,,,0.00,VWS V13.01,2012-06-28 08:35:00,
2012-06-28 03:40:00,69.4,51.5,29.94,NE,35,0.0,0.0,53,0.00,,,0.00,VWS V13.01,2012-06-28 08:40:00,
2012-06-28 03:45:00,69.0,51.2,29.97,NE,35,0.0,0.0,53,0.00,,,0.00,VWS V13.01,2012-06-28 08:45:00,
2012-06-28 03:50:00,68.8,51.5,29.97,NE,35,0.0,0.0,54,0.00,,,0.00,VWS V13.01,2012-06-28 08:50:00,
2012-06-28 03:55:00,68.7,51.4,29.97,NE,35,0.0,0.0,54,0.00,,,0.00,VWS V13.01,2012-06-28 08:55:00,
2012-06-28 04:00:00,68.7,51.4,29.97,NE,35,0.0,0.0,54,0.00,,,0.00,VWS V13.01,2012-06-28 09:00:00,
2012-06-28 04:05:00,68.5,52.2,29.97,NE,35,0.0,0.0,56,0.00,,,0.00,VWS V13.01,2012-06-28 09:05:00,
2012-06-28 04:10:00,68.3,52.0,29.97,NE,35,0.0,0.0,56,0.00,,,0.00,VWS V13.01,2012-06-28 09:10:00,
2012-06-28 04:15:00,67.9,51.7,29.97,NE,35,0.0,0.0,56,0.00,,,0.00,VWS V13.01,2012-06-28 09:15:00,
2012-06-28 04:20:00,67.6,51.3,29.97,NE,35,0.0,0.0,56,0.00,,,0.00,VWS V13.01,2012-06-28 09:20:00,
2012-06-28 04:25:00,67.4,51.7,29.97,NE,35,0.0,0.0,57,0.00,,,0.00,VWS V13.01,2012-06-28 09:25:00,
2012-06-28 04:30:00,67.4,51.7,29.97,NE,35,0.0,0.0,57,0.00,,,0.00,VWS V13.01,2012-06-28 09:30:00,
2012-06-28 04:35:00,67.4,51.7,29.97,NE,35,0.0,0.0,57,0.00,,,0.00,VWS V13.01,2012-06-28 09:35:00,
2012-06-28 04:40:00,67.4,51.7,29.97,NE,35,0.0,0.0,57,0.00,,,0.00,VWS V13.01,2012-06-28 09:40:00,
2012-06-28 04:45:00,67.2,52.0,29.97,NE,35,0.0,0.0,58,0.00,,,0.00,VWS V13.01,2012-06-28 09:45:00,
2012-06-28 04:50:00,67.2,51.5,29.97,NE,35,0.0,0.0,57,0.00,,,0.00,VWS V13.01,2012-06-28 09:50:00,
2012-06-28 04:55:00,67.0,51.3,29.97,NE,35,0.0,0.0,57,0.00,,,0.00,VWS V13.01,2012-06-28 09:55:00,
2012-06-28 05:00:00,67.0,51.8,29.97,NE,35,0.0,0.0,58,0.00,,,0.00,VWS V13.01,2012-06-28 10:00:00,
2012-06-28 05:05:00,66.9,52.1,29.97,NE,35,0.0,0.0,59,0.00,,,0.00,VWS V13.01,2012-06-28 10:05:00,
2012-06-28 05:10:00,66.9,52.1,29.97,NE,35,0.0,0.0,59,0.00,,,0.00,VWS V13.01,2012-06-28 10:10:00,
2012-06-28 05:15:00,66.7,52.4,29.97,NE,35,0.0,0.0,60,0.00,,,0.00,VWS V13.01,2012-06-28 10:15:00,
2012-06-28 05:20:00,66.5,52.7,29.97,NE,35,0.0,0.0,61,0.00,,,0.00,VWS V13.01,2012-06-28 10:20:00,
2012-06-28 05:25:00,66.3,52.0,29.97,NE,35,0.0,0.0,60,0.00,,,0.00,VWS V13.01,2012-06-28 10:25:00,
2012-06-28 05:30:00,66.1,52.3,29.97,NE,35,0.0,0.0,61,0.00,,,0.00,VWS V13.01,2012-06-28 10:30:00,
2012-06-28 05:35:00,66.1,51.9,29.97,NE,35,0.0,0.0,60,0.00,,,0.00,VWS V13.01,2012-06-28 10:35:00,
2012-06-28 05:40:00,66.1,52.3,29.97,NE,35,0.0,0.0,61,0.00,,,0.00,VWS V13.01,2012-06-28 10:40:00,
2012-06-28 05:45:00,66.1,52.3,29.97,NE,35,0.0,0.0,61,0.00,,,0.00,VWS V13.01,2012-06-28 10:45:00,
2012-06-28 05:50:00,66.1,52.3,29.97,NE,35,0.0,0.0,61,0.00,,,0.00,VWS V13.01,2012-06-28 10:50:00,
2012-06-28 05:55:00,66.1,52.8,29.97,NE,35,0.0,0.0,62,0.00,,,0.00,VWS V13.01,2012-06-28 10:55:00,
2012-06-28 06:00:00,66.0,52.1,29.97,NE,35,0.0,0.0,61,0.00,,,0.00,VWS V13.01,2012-06-28 11:00:00,
2012-06-28 06:05:00,66.0,52.1,29.97,NE,35,0.0,0.0,61,0.00,,,0.00,VWS V13.01,2012-06-28 11:05:00,
2012-06-28 06:10:00,65.8,52.4,29.97,NE,35,0.0,0.0,62,0.00,,,0.00,VWS V13.01,2012-06-28 11:10:00,
2012-06-28 06:15:00,65.8,52.8,29.97,NE,35,0.0,0.0,63,0.00,,,0.00,VWS V13.01,2012-06-28 11:15:00,
2012-06-28 06:20:00,65.6,52.7,29.97,NE,35,0.0,0.0,63,0.00,,,0.00,VWS V13.01,2012-06-28 11:20:00,
2012-06-28 06:25:00,65.6,52.7,29.97,NE,35,0.0,0.0,63,0.00,,,0.00,VWS V13.01,2012-06-28 11:25:00,
2012-06-28 06:30:00,65.6,53.1,30.00,NE,35,0.0,0.0,64,0.00,,,0.00,VWS V13.01,2012-06-28 11:30:00,
2012-06-28 06:35:00,65.8,53.3,30.00,NE,35,0.0,0.0,64,0.00,,,0.00,VWS V13.01,2012-06-28 11:35:00,
2012-06-28 06:40:00,65.8,53.3,30.00,NE,35,0.0,0.0,64,0.00,,,0.00,VWS V13.01,2012-06-28 11:40:00,
2012-06-28 06:45:00,65.8,53.3,30.00,NE,35,0.0,0.0,64,0.00,,,0.00,VWS V13.01,2012-06-28 11:45:00,
2012-06-28 06:50:00,66.0,53.5,30.00,NE,35,0.0,0.0,64,0.00,,,0.00,VWS V13.01,2012-06-28 11:50:00,
2012-06-28 06:55:00,66.1,52.8,30.00,NE,35,0.0,0.0,62,0.00,,,0.00,VWS V13.01,2012-06-28 11:55:00,
2012-06-28 07:00:00,66.5,52.2,30.00,WNW,299,0.0,0.0,60,0.00,,,0.00,VWS V13.01,2012-06-28 12:00:00,
2012-06-28 07:05:00,67.4,52.6,30.00,WNW,300,0.0,0.0,59,0.00,,,0.00,VWS V13.01,2012-06-28 12:05:00,
2012-06-28 07:10:00,68.1,52.8,30.00,WNW,300,0.0,0.0,58,0.00,,,0.00,VWS V13.01,2012-06-28 12:10:00,
2012-06-28 07:15:00,68.7,53.3,30.00,WNW,300,0.0,0.0,58,0.00,,,0.00,VWS V13.01,2012-06-28 12:15:00,
2012-06-28 07:19:00,69.2,52.8,30.00,NE,45,0.0,0.0,56,0.00,,,0.00,VWS V13.01,2012-06-28 12:19:00,
2012-06-28 07:24:00,69.9,52.5,30.00,North,360,0.0,0.0,54,0.00,,,0.00,VWS V13.01,2012-06-28 12:24:00,
2012-06-28 07:29:00,70.6,53.2,30.00,North,360,0.0,0.0,54,0.00,,,0.00,VWS V13.01,2012-06-28 12:29:00,
2012-06-28 07:34:00,71.4,53.4,30.00,West,265,0.0,0.0,53,0.00,,,0.00,VWS V13.01,2012-06-28 12:34:00,
2012-06-28 07:39:00,71.9,52.8,30.00,WSW,252,0.0,0.0,51,0.00,,,0.00,VWS V13.01,2012-06-28 12:39:00,
2012-06-28 07:44:00,72.4,52.8,30.00,WSW,254,0.0,0.0,50,0.00,,,0.00,VWS V13.01,2012-06-28 12:44:00,
2012-06-28 07:49:00,73.2,51.8,30.00,NNW,335,0.0,0.0,47,0.00,,,0.00,VWS V13.01,2012-06-28 12:49:00,
2012-06-28 07:54:00,74.2,51.5,30.00,NNW,336,0.0,0.0,45,0.00,,,0.00,VWS V13.01,2012-06-28 12:54:00,
2012-06-28 07:59:00,75.1,51.8,30.00,NNW,346,0.0,0.0,44,0.00,,,0.00,VWS V13.01,2012-06-28 12:59:00,
2012-06-28 08:04:00,76.2,52.1,30.00,NNE,26,0.0,0.0,43,0.00,,,0.00,VWS V13.01,2012-06-28 13:04:00,
2012-06-28 08:09:00,77.1,52.3,30.00,North,355,0.0,0.0,42,0.00,,,0.00,VWS V13.01,2012-06-28 13:09:00,
2012-06-28 08:14:00,77.7,52.8,30.00,North,353,0.0,0.0,42,0.00,,,0.00,VWS V13.01,2012-06-28 13:14:00,
2012-06-28 08:19:00,78.4,52.8,30.00,North,10,0.0,0.0,41,0.00,,,0.00,VWS V13.01,2012-06-28 13:19:00,
2012-06-28 08:24:00,79.3,53.6,30.00,ENE,67,0.0,0.0,41,0.00,,,0.00,VWS V13.01,2012-06-28 13:24:00,
2012-06-28 08:29:00,80.0,53.5,30.00,ESE,118,0.0,0.0,40,0.00,,,0.00,VWS V13.01,2012-06-28 13:29:00,
2012-06-28 08:34:00,80.5,51.9,30.00,ENE,68,0.0,0.0,37,0.00,,,0.00,VWS V13.01,2012-06-28 13:34:00,
2012-06-28 08:39:00,81.1,52.4,30.00,NNW,345,0.0,0.0,37,0.00,,,0.00,VWS V13.01,2012-06-28 13:39:00,
2012-06-28 08:44:00,81.6,52.1,30.00,NNW,332,0.0,0.0,36,0.00,,,0.00,VWS V13.01,2012-06-28 13:44:00,
2012-06-28 08:49:00,82.2,51.8,30.00,NNE,28,2.7,2.7,35,0.00,,,0.00,VWS V13.01,2012-06-28 13:49:00,
2012-06-28 08:54:00,83.2,52.0,30.00,NNE,12,0.0,3.1,34,0.00,,,0.00,VWS V13.01,2012-06-28 13:54:00,
2012-06-28 08:59:00,84.0,51.8,30.03,NE,40,0.0,2.7,33,0.00,,,0.00,VWS V13.01,2012-06-28 13:59:00,
2012-06-28 09:04:00,84.7,52.4,30.03,NW,310,0.0,0.0,33,0.00,,,0.00,VWS V13.01,2012-06-28 14:04:00,
2012-06-28 09:09:00,85.2,52.1,30.03,ESE,117,2.2,2.7,32,0.00,,,0.00,VWS V13.01,2012-06-28 14:09:00,
2012-06-28 09:14:00,85.8,51.7,30.03,NE,56,0.0,0.0,31,0.00,,,0.00,VWS V13.01,2012-06-28 14:14:00,
2012-06-28 09:19:00,86.5,52.3,30.00,North,10,2.7,3.1,31,0.00,,,0.00,VWS V13.01,2012-06-28 14:19:00,
2012-06-28 09:24:00,87.0,52.8,30.00,NNE,12,0.0,0.0,31,0.00,,,0.00,VWS V13.01,2012-06-28 14:24:00,
2012-06-28 09:29:00,87.9,52.6,30.00,ENE,69,0.0,0.0,30,0.00,,,0.00,VWS V13.01,2012-06-28 14:29:00,
2012-06-28 09:34:00,88.8,53.4,30.00,SW,236,4.0,4.0,30,0.00,,,0.00,VWS V13.01,2012-06-28 14:34:00,
2012-06-28 09:39:00,88.8,53.4,30.00,SW,217,0.0,0.0,30,0.00,,,0.00,VWS V13.01,2012-06-28 14:39:00,
2012-06-28 09:44:00,89.5,53.1,30.03,SE,138,4.0,4.0,29,0.00,,,0.00,VWS V13.01,2012-06-28 14:44:00,
2012-06-28 09:49:00,90.1,53.6,30.03,WSW,239,4.0,4.5,29,0.00,,,0.00,VWS V13.01,2012-06-28 14:49:00,
2012-06-28 09:54:00,90.1,53.6,30.03,WNW,286,0.0,0.0,29,0.00,,,0.00,VWS V13.01,2012-06-28 14:54:00,
2012-06-28 09:59:00,90.4,53.9,30.03,South,189,2.7,3.6,29,0.00,,,0.00,VWS V13.01,2012-06-28 14:59:00,
2012-06-28 10:04:00,91.2,53.5,30.03,SE,143,0.0,2.7,28,0.00,,,0.00,VWS V13.01,2012-06-28 15:04:00,
2012-06-28 10:09:00,91.9,54.2,30.03,NNW,327,0.0,0.0,28,0.00,,,0.00,VWS V13.01,2012-06-28 15:09:00,
2012-06-28 10:14:00,92.6,54.8,30.03,West,264,2.7,3.6,28,0.00,,,0.00,VWS V13.01,2012-06-28 15:14:00,
2012-06-28 10:19:00,93.1,55.2,30.03,SW,232,3.6,4.0,28,0.00,,,0.00,VWS V13.01,2012-06-28 15:19:00,
2012-06-28 10:24:00,93.1,55.2,30.03,West,269,4.0,4.9,28,0.00,,,0.00,VWS V13.01,2012-06-28 15:24:00,
2012-06-28 10:29:00,93.1,55.2,30.00,WSW,242,0.0,0.0,28,0.00,,,0.00,VWS V13.01,2012-06-28 15:29:00,
2012-06-28 10:34:00,93.9,55.8,30.00,SW,229,3.6,4.0,28,0.00,,,0.00,VWS V13.01,2012-06-28 15:34:00,
2012-06-28 10:39:00,94.6,55.5,30.00,SSE,154,4.9,5.8,27,0.00,,,0.00,VWS V13.01,2012-06-28 15:39:00,
2012-06-28 10:44:00,95.1,55.9,30.00,South,169,3.6,3.6,27,0.00,,,0.00,VWS V13.01,2012-06-28 15:44:00,
2012-06-28 10:49:00,95.5,56.2,30.00,South,173,6.3,6.3,27,0.00,,,0.00,VWS V13.01,2012-06-28 15:49:00,
2012-06-28 10:54:00,96.0,56.7,30.00,SSW,208,4.0,5.4,27,0.00,,,0.00,VWS V13.01,2012-06-28 15:54:00,
2012-06-28 10:59:00,96.4,55.9,30.00,SW,224,3.6,5.4,26,0.00,,,0.00,VWS V13.01,2012-06-28 15:59:00,
2012-06-28 11:04:00,97.1,56.5,30.00,South,172,3.1,3.6,26,0.00,,,0.00,VWS V13.01,2012-06-28 16:04:00,
2012-06-28 11:09:00,97.8,57.2,30.00,WSW,245,5.8,5.8,26,0.00,,,0.00,VWS V13.01,2012-06-28 16:09:00,
2012-06-28 11:14:00,98.0,57.3,30.00,SW,232,5.8,6.3,26,0.00,,,0.00,VWS V13.01,2012-06-28 16:14:00,
2012-06-28 11:19:00,97.8,57.2,30.00,WSW,253,4.0,4.0,26,0.00,,,0.00,VWS V13.01,2012-06-28 16:19:00,
2012-06-28 11:24:00,98.2,57.5,30.00,West,263,4.9,4.9,26,0.00,,,0.00,VWS V13.01,2012-06-28 16:24:00,
2012-06-28 11:29:00,98.5,57.8,30.00,WSW,256,0.0,3.1,26,0.00,,,0.00,VWS V13.01,2012-06-28 16:29:00,
2012-06-28 11:34:00,98.9,58.1,30.00,SW,233,9.6,9.6,26,0.00,,,0.00,VWS V13.01,2012-06-28 16:34:00,
2012-06-28 11:39:00,99.4,58.5,30.00,SW,232,8.7,8.7,26,0.00,,,0.00,VWS V13.01,2012-06-28 16:39:00,
2012-06-28 11:44:00,99.8,58.8,30.00,WSW,238,4.0,4.0,26,0.00,,,0.00,VWS V13.01,2012-06-28 16:44:00,
2012-06-28 11:49:00,100.0,55.6,30.00,SW,225,6.3,6.3,23,0.00,,,0.00,VWS V13.01,2012-06-28 16:49:00,
2012-06-28 11:54:00,100.0,59.0,30.00,South,178,4.9,4.9,26,0.00,,,0.00,VWS V13.01,2012-06-28 16:54:00,
2012-06-28 11:59:00,100.2,55.7,30.00,WSW,242,6.3,6.3,23,0.00,,,0.00,VWS V13.01,2012-06-28 16:59:00,
2012-06-28 12:04:00,100.5,56.0,30.00,SSW,211,3.6,4.0,23,0.00,,,0.00,VWS V13.01,2012-06-28 17:04:00,
2012-06-28 12:09:00,101.1,56.5,30.00,South,191,6.3,6.3,23,0.00,,,0.00,VWS V13.01,2012-06-28 17:09:00,
2012-06-28 12:14:00,101.4,56.8,30.00,South,175,4.9,4.9,23,0.00,,,0.00,VWS V13.01,2012-06-28 17:14:00,
2012-06-28 12:19:00,101.4,56.8,30.00,SW,215,8.3,10.1,23,0.00,,,0.00,VWS V13.01,2012-06-28 17:19:00,
2012-06-28 12:24:00,101.8,57.1,30.00,WSW,256,5.4,5.8,23,0.00,,,0.00,VWS V13.01,2012-06-28 17:24:00,
2012-06-28 12:29:00,102.0,57.2,30.00,SSW,207,6.3,6.3,23,0.00,,,0.00,VWS V13.01,2012-06-28 17:29:00,
2012-06-28 12:34:00,102.0,57.2,30.00,SW,228,5.4,8.1,23,0.00,,,0.00,VWS V13.01,2012-06-28 17:34:00,
2012-06-28 12:39:00,102.0,57.2,30.00,SSW,201,4.9,4.9,23,0.00,,,0.00,VWS V13.01,2012-06-28 17:39:00,
2012-06-28 12:44:00,102.1,57.4,30.00,South,174,3.6,5.8,23,0.00,,,0.00,VWS V13.01,2012-06-28 17:44:00,
2012-06-28 12:49:00,102.3,57.5,30.00,West,281,4.0,4.0,23,0.00,,,0.00,VWS V13.01,2012-06-28 17:49:00,
2012-06-28 12:54:00,102.5,57.7,30.00,SSW,205,7.6,8.3,23,0.00,,,0.00,VWS V13.01,2012-06-28 17:54:00,
2012-06-28 12:59:00,103.2,58.3,30.00,SW,223,3.6,4.0,23,0.00,,,0.00,VWS V13.01,2012-06-28 17:59:00,
2012-06-28 13:04:00,103.4,57.2,30.00,SSW,211,5.8,5.8,22,0.00,,,0.00,VWS V13.01,2012-06-28 18:04:00,
2012-06-28 13:09:00,103.0,58.1,30.00,SSE,150,5.4,5.4,23,0.00,,,0.00,VWS V13.01,2012-06-28 18:09:00,
2012-06-28 13:14:00,103.0,58.1,30.00,SW,222,4.0,10.5,23,0.00,,,0.00,VWS V13.01,2012-06-28 18:14:00,
2012-06-28 13:19:00,103.6,57.3,30.00,West,271,5.4,5.4,22,0.00,,,0.00,VWS V13.01,2012-06-28 18:19:00,
2012-06-28 13:24:00,103.8,57.5,30.00,WSW,247,8.1,8.1,22,0.00,,,0.00,VWS V13.01,2012-06-28 18:24:00,
2012-06-28 13:29:00,104.1,57.8,30.00,SSW,205,3.6,3.6,22,0.00,,,0.00,VWS V13.01,2012-06-28 18:29:00,
2012-06-28 13:34:00,104.1,57.8,30.00,South,179,5.4,5.4,22,0.00,,,0.00,VWS V13.01,2012-06-28 18:34:00,
2012-06-28 13:39:00,104.1,57.8,30.00,SSE,153,6.3,6.3,22,0.00,,,0.00,VWS V13.01,2012-06-28 18:39:00,
2012-06-28 13:44:00,104.5,58.1,29.97,SW,215,3.6,8.1,22,0.00,,,0.00,VWS V13.01,2012-06-28 18:44:00,
2012-06-28 13:49:00,104.5,55.4,29.97,South,186,8.1,8.1,20,0.00,,,0.00,VWS V13.01,2012-06-28 18:49:00,
2012-06-28 13:54:00,104.7,58.2,29.97,WSW,249,5.4,5.4,22,0.00,,,0.00,VWS V13.01,2012-06-28 18:54:00,
2012-06-28 13:59:00,105.4,54.8,29.97,SW,224,8.1,8.3,19,0.00,,,0.00,VWS V13.01,2012-06-28 18:59:00,
2012-06-28 14:04:00,105.2,54.6,29.97,WSW,241,5.4,10.1,19,0.00,,,0.00,VWS V13.01,2012-06-28 19:04:00,
2012-06-28 14:09:00,104.8,55.7,29.97,SE,139,5.8,5.8,20,0.00,,,0.00,VWS V13.01,2012-06-28 19:09:00,
2012-06-28 14:14:00,105.4,58.8,29.97,SSE,155,5.4,10.1,22,0.00,,,0.00,VWS V13.01,2012-06-28 19:14:00,
2012-06-28 14:19:00,105.7,55.0,29.97,WNW,294,4.9,7.6,19,0.00,,,0.00,VWS V13.01,2012-06-28 19:19:00,
2012-06-28 14:24:00,105.7,55.0,29.97,SSW,207,0.0,6.3,19,0.00,,,0.00,VWS V13.01,2012-06-28 19:24:00,
2012-06-28 14:29:00,105.9,55.2,29.97,SSW,211,8.1,8.1,19,0.00,,,0.00,VWS V13.01,2012-06-28 19:29:00,
2012-06-28 14:34:00,106.1,59.4,29.97,SSE,157,3.1,3.1,22,0.00,,,0.00,VWS V13.01,2012-06-28 19:34:00,
2012-06-28 14:39:00,107.0,60.2,29.97,SW,232,10.1,10.1,22,0.00,,,0.00,VWS V13.01,2012-06-28 19:39:00,
2012-06-28 14:44:00,106.3,55.5,29.97,WNW,286,4.0,4.9,19,0.00,,,0.00,VWS V13.01,2012-06-28 19:44:00,
2012-06-28 14:49:00,106.1,55.3,29.97,East,101,4.0,5.4,19,0.00,,,0.00,VWS V13.01,2012-06-28 19:49:00,
2012-06-28 14:54:00,106.3,59.5,29.97,SSE,150,0.0,3.6,22,0.00,,,0.00,VWS V13.01,2012-06-28 19:54:00,
2012-06-28 14:59:00,107.2,56.2,29.97,WSW,237,10.1,16.8,19,0.00,,,0.00,VWS V13.01,2012-06-28 19:59:00,
2012-06-28 15:04:00,107.0,56.1,29.97,West,279,8.1,8.1,19,0.00,,,0.00,VWS V13.01,2012-06-28 20:04:00,
2012-06-28 15:09:00,107.0,56.1,29.97,WNW,283,4.0,7.6,19,0.00,,,0.00,VWS V13.01,2012-06-28 20:09:00,
2012-06-28 15:14:00,107.0,56.1,29.94,WSW,248,4.0,4.5,19,0.00,,,0.00,VWS V13.01,2012-06-28 20:14:00,
2012-06-28 15:19:00,107.0,56.1,29.94,South,180,7.6,7.6,19,0.00,,,0.00,VWS V13.01,2012-06-28 20:19:00,
2012-06-28 15:24:00,106.8,55.9,29.94,WSW,248,7.6,13.6,19,0.00,,,0.00,VWS V13.01,2012-06-28 20:24:00,
2012-06-28 15:29:00,107.0,56.1,29.94,WNW,286,6.3,6.3,19,0.00,,,0.00,VWS V13.01,2012-06-28 20:29:00,
2012-06-28 15:34:00,107.4,56.3,29.94,SW,224,9.2,9.2,19,0.00,,,0.00,VWS V13.01,2012-06-28 20:34:00,
2012-06-28 15:39:00,107.4,56.3,29.94,SSW,211,8.1,11.0,19,0.00,,,0.00,VWS V13.01,2012-06-28 20:39:00,
2012-06-28 15:44:00,107.7,56.7,29.94,SSW,213,0.0,4.0,19,0.00,,,0.00,VWS V13.01,2012-06-28 20:44:00,
2012-06-28 15:49:00,107.5,56.5,29.94,SW,235,3.6,5.8,19,0.00,,,0.00,VWS V13.01,2012-06-28 20:49:00,
2012-06-28 15:54:00,107.2,56.2,29.94,SSE,165,2.2,3.6,19,0.00,,,0.00,VWS V13.01,2012-06-28 20:54:00,
2012-06-28 15:59:00,107.5,56.5,29.94,NNE,28,2.7,5.8,19,0.00,,,0.00,VWS V13.01,2012-06-28 20:59:00,
2012-06-28 16:04:00,107.9,56.8,29.94,WSW,253,2.7,3.6,19,0.00,,,0.00,VWS V13.01,2012-06-28 21:04:00,
2012-06-28 16:09:00,108.3,57.1,29.94,South,191,5.4,6.3,19,0.00,,,0.00,VWS V13.01,2012-06-28 21:09:00,
2012-06-28 16:14:00,108.1,56.9,29.94,SSW,195,4.9,4.9,19,0.00,,,0.00,VWS V13.01,2012-06-28 21:14:00,
2012-06-28 16:18:00,107.9,56.8,29.94,NNE,30,2.7,3.1,19,0.00,,,0.00,VWS V13.01,2012-06-28 21:18:00,
2012-06-28 16:23:00,107.9,56.8,29.94,SW,234,3.1,3.6,19,0.00,,,0.00,VWS V13.01,2012-06-28 21:23:00,
2012-06-28 16:28:00,108.4,57.2,29.94,South,173,8.1,8.1,19,0.00,,,0.00,VWS V13.01,2012-06-28 21:28:00,
2012-06-28 16:33:00,108.3,57.1,29.94,ESE,105,5.4,5.4,19,0.00,,,0.00,VWS V13.01,2012-06-28 21:33:00,
2012-06-28 16:39:00,108.3,57.1,29.94,West,272,3.6,4.0,19,0.00,,,0.00,VWS V13.01,2012-06-28 21:39:00,
2012-06-28 16:44:00,108.4,57.2,29.94,WSW,238,5.8,6.3,19,0.00,,,0.00,VWS V13.01,2012-06-28 21:44:00,
2012-06-28 16:49:00,108.3,57.1,29.94,SW,229,3.1,3.1,19,0.00,,,0.00,VWS V13.01,2012-06-28 21:49:00,
2012-06-28 16:54:00,107.9,56.8,29.94,SW,236,3.1,5.4,19,0.00,,,0.00,VWS V13.01,2012-06-28 21:54:00,
2012-06-28 16:59:00,107.9,56.8,29.94,West,259,5.8,5.8,19,0.00,,,0.00,VWS V13.01,2012-06-28 21:59:00,
2012-06-28 17:04:00,108.1,56.9,29.91,SW,229,8.3,8.3,19,0.00,,,0.00,VWS V13.01,2012-06-28 22:04:00,
2012-06-28 17:09:00,108.1,56.9,29.91,SW,231,5.8,6.3,19,0.00,,,0.00,VWS V13.01,2012-06-28 22:09:00,
2012-06-28 17:14:00,108.1,56.9,29.91,WSW,241,6.3,6.3,19,0.00,,,0.00,VWS V13.01,2012-06-28 22:14:00,
2012-06-28 17:19:00,108.3,57.1,29.91,SW,224,4.0,6.3,19,0.00,,,0.00,VWS V13.01,2012-06-28 22:19:00,
2012-06-28 17:24:00,108.3,57.1,29.91,South,181,0.0,0.0,19,0.00,,,0.00,VWS V13.01,2012-06-28 22:24:00,
2012-06-28 17:29:00,108.3,57.1,29.91,SW,236,3.1,3.6,19,0.00,,,0.00,VWS V13.01,2012-06-28 22:29:00,
2012-06-28 17:34:00,108.3,57.1,29.91,SSW,206,3.6,4.0,19,0.00,,,0.00,VWS V13.01,2012-06-28 22:34:00,
2012-06-28 17:39:00,108.3,57.1,29.91,SW,227,3.1,4.0,19,0.00,,,0.00,VWS V13.01,2012-06-28 22:39:00,
2012-06-28 17:44:00,107.9,56.8,29.91,SSW,197,3.1,3.6,19,0.00,,,0.00,VWS V13.01,2012-06-28 22:44:00,
2012-06-28 17:48:00,107.9,56.8,29.91,SSW,212,3.6,5.4,19,0.00,,,0.00,VWS V13.01,2012-06-28 22:48:00,
2012-06-28 17:53:00,108.3,57.1,29.91,ENE,76,0.0,0.0,19,0.00,,,0.00,VWS V13.01,2012-06-28 22:53:00,
2012-06-28 17:58:00,108.6,57.4,29.91,South,174,4.9,6.3,19,0.00,,,0.00,VWS V13.01,2012-06-28 22:58:00,
2012-06-28 18:03:00,108.3,57.1,29.91,SSW,193,2.7,3.6,19,0.00,,,0.00,VWS V13.01,2012-06-28 23:03:00,
2012-06-28 18:08:00,108.1,56.9,29.91,SSE,153,2.2,3.6,19,0.00,,,0.00,VWS V13.01,2012-06-28 23:08:00,
2012-06-28 18:13:00,108.4,57.2,29.91,SSW,210,2.2,2.2,19,0.00,,,0.00,VWS V13.01,2012-06-28 23:13:00,
2012-06-28 18:18:00,109.2,57.8,29.91,SSW,197,0.0,0.0,19,0.00,,,0.00,VWS V13.01,2012-06-28 23:18:00,
2012-06-28 18:23:00,109.7,58.2,29.91,West,272,0.0,0.0,19,0.00,,,0.00,VWS V13.01,2012-06-28 23:23:00,
2012-06-28 18:28:00,109.7,58.2,29.91,SW,222,3.1,4.9,19,0.00,,,0.00,VWS V13.01,2012-06-28 23:28:00,
2012-06-28 18:33:00,109.3,58.0,29.91,SE,143,0.0,0.0,19,0.00,,,0.00,VWS V13.01,2012-06-28 23:33:00,
2012-06-28 18:38:00,108.8,57.5,29.91,ESE,120,3.6,3.6,19,0.00,,,0.00,VWS V13.01,2012-06-28 23:38:00,
2012-06-28 18:43:00,108.1,56.9,29.91,SW,222,2.2,2.7,19,0.00,,,0.00,VWS V13.01,2012-06-28 23:43:00,
2012-06-28 18:48:00,108.1,56.9,29.91,South,177,3.1,4.0,19,0.00,,,0.00,VWS V13.01,2012-06-28 23:48:00,
2012-06-28 18:53:00,107.9,56.8,29.91,WNW,301,0.0,0.0,19,0.00,,,0.00,VWS V13.01,2012-06-28 23:53:00,
2012-06-28 18:58:00,108.1,56.9,29.91,South,169,2.7,2.7,19,0.00,,,0.00,VWS V13.01,2012-06-28 23:58:00,
2012-06-28 19:03:00,107.7,56.7,29.91,SSW,207,0.0,0.0,19,0.00,,,0.00,VWS V13.01,2012-06-29 00:03:00,
2012-06-28 19:08:00,107.7,56.7,29.91,ESE,108,0.0,0.0,19,0.00,,,0.00,VWS V13.01,2012-06-29 00:08:00,
2012-06-28 19:13:00,107.4,56.3,29.91,SSE,159,0.0,0.0,19,0.00,,,0.00,VWS V13.01,2012-06-29 00:13:00,
2012-06-28 19:18:00,107.2,56.2,29.91,SSE,152,0.0,0.0,19,0.00,,,0.00,VWS V13.01,2012-06-29 00:18:00,
2012-06-28 19:23:00,107.0,56.1,29.91,SE,124,0.0,0.0,19,0.00,,,0.00,VWS V13.01,2012-06-29 00:23:00,
2012-06-28 19:28:00,106.6,55.8,29.91,ESE,113,0.0,0.0,19,0.00,,,0.00,VWS V13.01,2012-06-29 00:28:00,
2012-06-28 19:33:00,106.3,55.5,29.91,SE,131,0.0,0.0,19,0.00,,,0.00,VWS V13.01,2012-06-29 00:33:00,
2012-06-28 19:38:00,105.9,55.2,29.91,SSE,167,2.2,2.7,19,0.00,,,0.00,VWS V13.01,2012-06-29 00:38:00,
2012-06-28 19:43:00,105.4,54.8,29.91,SSE,167,0.0,0.0,19,0.00,,,0.00,VWS V13.01,2012-06-29 00:43:00,
2012-06-28 19:48:00,105.0,55.9,29.91,SSE,167,0.0,0.0,20,0.00,,,0.00,VWS V13.01,2012-06-29 00:48:00,
2012-06-28 19:53:00,104.3,55.3,29.91,SE,143,0.0,0.0,20,0.00,,,0.00,VWS V13.01,2012-06-29 00:53:00,
2012-06-28 19:58:00,103.6,54.7,29.91,SE,143,0.0,0.0,20,0.00,,,0.00,VWS V13.01,2012-06-29 00:58:00,
2012-06-28 20:03:00,103.0,54.2,29.91,SE,143,0.0,0.0,20,0.00,,,0.00,VWS V13.01,2012-06-29 01:03:00,
2012-06-28 20:08:00,102.5,53.8,29.91,SE,143,0.0,0.0,20,0.00,,,0.00,VWS V13.01,2012-06-29 01:08:00,
2012-06-28 20:13:00,101.8,53.2,29.91,SE,127,3.6,3.6,20,0.00,,,0.00,VWS V13.01,2012-06-29 01:13:00,
2012-06-28 20:18:00,101.4,54.3,29.91,ESE,123,3.6,3.6,21,0.00,,,0.00,VWS V13.01,2012-06-29 01:18:00,
2012-06-28 20:23:00,101.2,54.1,29.91,SSE,164,3.6,3.6,21,0.00,,,0.00,VWS V13.01,2012-06-29 01:23:00,
2012-06-28 20:28:00,101.1,54.0,29.91,SE,131,6.3,6.3,21,0.00,,,0.00,VWS V13.01,2012-06-29 01:28:00,
2012-06-28 20:33:00,100.9,53.8,29.91,SSW,197,5.8,5.8,21,0.00,,,0.00,VWS V13.01,2012-06-29 01:33:00,
2012-06-28 20:38:00,100.5,53.5,29.91,SSE,164,2.7,5.4,21,0.00,,,0.00,VWS V13.01,2012-06-29 01:38:00,
2012-06-28 20:43:00,100.0,53.1,29.91,SSE,147,4.9,4.9,21,0.00,,,0.00,VWS V13.01,2012-06-29 01:43:00,
2012-06-28 20:48:00,99.6,52.8,29.94,SSE,166,3.1,4.0,21,0.00,,,0.00,VWS V13.01,2012-06-29 01:48:00,
2012-06-28 20:53:00,99.1,56.0,29.94,South,177,3.1,3.6,24,0.00,,,0.00,VWS V13.01,2012-06-29 01:53:00,
2012-06-28 20:58:00,98.5,55.5,29.94,SSE,150,3.1,3.1,24,0.00,,,0.00,VWS V13.01,2012-06-29 01:58:00,
2012-06-28 21:03:00,98.2,55.2,29.94,South,171,2.2,2.7,24,0.00,,,0.00,VWS V13.01,2012-06-29 02:03:00,
2012-06-28 21:08:00,97.6,54.8,29.94,SSE,150,0.0,0.0,24,0.00,,,0.00,VWS V13.01,2012-06-29 02:08:00,
2012-06-28 21:13:00,97.3,54.5,29.94,SSE,165,0.0,0.0,24,0.00,,,0.00,VWS V13.01,2012-06-29 02:13:00,
2012-06-28 21:18:00,97.1,54.3,29.94,South,169,0.0,0.0,24,0.00,,,0.00,VWS V13.01,2012-06-29 02:18:00,
2012-06-28 21:23:00,96.7,54.0,29.94,South,186,0.0,0.0,24,0.00,,,0.00,VWS V13.01,2012-06-29 02:23:00,
2012-06-28 21:28:00,96.4,53.7,29.94,SSE,158,0.0,0.0,24,0.00,,,0.00,VWS V13.01,2012-06-29 02:28:00,
2012-06-28 21:33:00,96.2,53.6,29.94,South,173,0.0,0.0,24,0.00,,,0.00,VWS V13.01,2012-06-29 02:33:00,
2012-06-28 21:38:00,95.8,53.3,29.94,South,178,0.0,0.0,24,0.00,,,0.00,VWS V13.01,2012-06-29 02:38:00,
2012-06-28 21:43:00,95.7,53.1,29.94,SSW,196,0.0,0.0,24,0.00,,,0.00,VWS V13.01,2012-06-29 02:43:00,
2012-06-28 21:48:00,95.1,52.7,29.94,WSW,247,0.0,0.0,24,0.00,,,0.00,VWS V13.01,2012-06-29 02:48:00,
2012-06-28 21:53:00,94.6,52.2,29.94,WSW,247,0.0,0.0,24,0.00,,,0.00,VWS V13.01,2012-06-29 02:53:00,
2012-06-28 21:58:00,93.9,54.8,29.94,WSW,247,0.0,0.0,27,0.00,,,0.00,VWS V13.01,2012-06-29 02:58:00,
2012-06-28 22:03:00,93.1,54.2,29.97,WSW,247,0.0,0.0,27,0.00,,,0.00,VWS V13.01,2012-06-29 03:03:00,
2012-06-28 22:08:00,92.6,53.8,29.97,WSW,247,0.0,0.0,27,0.00,,,0.00,VWS V13.01,2012-06-29 03:08:00,
2012-06-28 22:13:00,91.9,54.2,29.97,WSW,247,0.0,0.0,28,0.00,,,0.00,VWS V13.01,2012-06-29 03:13:00,
2012-06-28 22:18:00,91.3,53.7,29.97,WSW,247,0.0,0.0,28,0.00,,,0.00,VWS V13.01,2012-06-29 03:18:00,
2012-06-28 22:23:00,91.0,53.4,29.97,WSW,247,0.0,0.0,28,0.00,,,0.00,VWS V13.01,2012-06-29 03:23:00,
2012-06-28 22:28:00,90.1,53.6,29.97,NW,314,0.0,0.0,29,0.00,,,0.00,VWS V13.01,2012-06-29 03:28:00,
2012-06-28 22:33:00,89.4,53.0,29.97,NW,314,0.0,0.0,29,0.00,,,0.00,VWS V13.01,2012-06-29 03:33:00,
2012-06-28 22:38:00,88.8,53.4,29.97,NW,314,0.0,0.0,30,0.00,,,0.00,VWS V13.01,2012-06-29 03:38:00,
2012-06-28 22:43:00,88.3,53.8,29.97,NW,314,0.0,0.0,31,0.00,,,0.00,VWS V13.01,2012-06-29 03:43:00,
2012-06-28 22:48:00,87.9,53.5,29.94,NW,314,0.0,0.0,31,0.00,,,0.00,VWS V13.01,2012-06-29 03:48:00,
2012-06-28 22:53:00,87.4,53.1,29.94,NW,314,0.0,0.0,31,0.00,,,0.00,VWS V13.01,2012-06-29 03:53:00,
2012-06-28 22:58:00,87.0,53.6,29.94,NE,34,0.0,0.0,32,0.00,,,0.00,VWS V13.01,2012-06-29 03:58:00,
2012-06-28 23:00:00,86.8,53.5,29.97,NE,34,0.0,0.0,32,0.00,,,0.00,VWS V13.01,2012-06-29 04:00:00,
2012-06-28 23:05:00,86.7,54.2,29.97,NE,43,0.0,0.0,33,0.00,,,0.00,VWS V13.01,2012-06-29 04:05:00,
2012-06-28 23:10:00,86.3,53.8,29.97,NNE,23,0.0,0.0,33,0.00,,,0.00,VWS V13.01,2012-06-29 04:10:00,
2012-06-28 23:15:00,85.9,54.3,29.97,NNE,23,0.0,0.0,34,0.00,,,0.00,VWS V13.01,2012-06-29 04:15:00,
2012-06-28 23:20:00,85.8,55.0,29.97,NNE,23,0.0,0.0,35,0.00,,,0.00,VWS V13.01,2012-06-29 04:20:00,
2012-06-28 23:25:00,85.4,54.7,29.97,NNE,23,0.0,0.0,35,0.00,,,0.00,VWS V13.01,2012-06-29 04:25:00,
2012-06-28 23:30:00,85.2,55.3,29.97,NNE,23,0.0,0.0,36,0.00,,,0.00,VWS V13.01,2012-06-29 04:30:00,
2012-06-28 23:35:00,84.9,55.7,29.97,NNE,23,0.0,0.0,37,0.00,,,0.00,VWS V13.01,2012-06-29 04:35:00,
2012-06-28 23:40:00,84.5,56.1,29.97,NNE,23,0.0,0.0,38,0.00,,,0.00,VWS V13.01,2012-06-29 04:40:00,
2012-06-28 23:45:00,84.1,56.5,29.97,NNE,29,0.0,0.0,39,0.00,,,0.00,VWS V13.01,2012-06-29 04:45:00,
2012-06-28 23:50:00,83.8,56.2,29.97,NNE,29,0.0,0.0,39,0.00,,,0.00,VWS V13.01,2012-06-29 04:50:00,
2012-06-28 23:55:00,83.8,56.9,29.97,NNE,29,0.0,0.0,40,0.00,,,0.00,VWS V13.01,2012-06-29 04:55:00,